Jackson, MS

5:08 AM CDT on April 19, 2018 (GMT -0500)
Jackson-Evers International

Weather History for KJAN - July, 2012

Change the Weather History Date:

Saturday, July 28, 2012

  Actual Average Record
Temperature  
Mean Temperature 85 °F 82 °F  
Max Temperature 96 °F 92 °F 102 °F (1930)
Min Temperature 73 °F 72 °F 60 °F (1911)
Degree Days  
Heating Degree Days 0 0  
Month to date heating degree days 0 0  
Since 1 June heating degree days 0 0  
Since 1 July heating degree days 0 0  
Cooling Degree Days 20 17  
Month to date cooling degree days 503 469  
Year to date cooling degree days 1528 1249  
Since 1 June cooling degree days 951 891  
Growing Degree Days 34 (Base 50)    
Moisture  
Dew Point 74 °F    
Average Humidity 72    
Maximum Humidity 94    
Minimum Humidity 49    
Precipitation  
Precipitation 0.00 in 0.15 in 2.00 in (1898)
Month to date precipitation 7.80 4.35  
Year to date precipitation 43.76 32.58  
Sea Level Pressure  
Sea Level Pressure 30.03 in    
Wind  
Wind Speed 2 mph (SW)    
Max Wind Speed 8 mph    
Max Gust Speed 10 mph    
Visibility 8 miles    
Events      
T = Trace of Precipitation, MM = Missing Value Source: NWS Daily Summary

Daily Weather History Graph

Daily Weather History Graph

Search for Another Location

Airport or City:

Astronomy

Jul. 28, 2012 Rise Set
Actual Time 6:12 AM CDT 8:00 PM CDT
Civil Twilight 5:45 AM CDT 8:27 PM CDT
Nautical Twilight 5:13 AM CDT 8:59 PM CDT
Astronomical Twilight 4:38 AM CDT 9:34 PM CDT
Moon 4:01 PM CDT (7/28) 1:34 AM CDT (7/28)
Length of Visible Light 14h 41m
Length of Day
13h 47m
Waxing Gibbous, 76% of the Moon is Illuminated
Jul 28
Waxing Gibbous
Aug 1
Full
Aug 9
Last Quarter
Aug 17
New
Aug 24
First Quarter

Hourly Weather History & Observations

Time (CDT) Temp. Heat Index Dew Point Humidity Pressure Visibility Wind Dir Wind Speed Gust Speed Precip Events Conditions
12:54 AM 75.0 °F - 73.0 °F 94% 30.03 in 9.0 mi SSE 4.6 mph - N/A   Clear
1:54 AM 73.9 °F - 72.0 °F 93% 30.02 in 8.0 mi South 4.6 mph - N/A   Clear
2:54 AM 73.9 °F - 72.0 °F 93% 30.01 in 9.0 mi Calm Calm - N/A   Clear
3:54 AM 73.9 °F - 71.1 °F 91% 30.03 in 7.0 mi Calm Calm - N/A   Clear
4:54 AM 73.0 °F - 71.1 °F 93% 30.04 in 7.0 mi Calm Calm - N/A   Scattered Clouds
5:54 AM 73.9 °F - 72.0 °F 93% 30.05 in 8.0 mi Calm Calm - N/A   Partly Cloudy
6:54 AM 73.9 °F - 72.0 °F 93% 30.06 in 6.0 mi Calm Calm - N/A   Partly Cloudy
7:54 AM 78.1 °F - 75.0 °F 90% 30.06 in 7.0 mi South 4.6 mph - N/A   Mostly Cloudy
8:54 AM 80.1 °F 85.4 °F 75.9 °F 87% 30.08 in 7.0 mi SW 6.9 mph - N/A   Mostly Cloudy
9:54 AM 84.0 °F 92.6 °F 75.9 °F 76% 30.08 in 8.0 mi WSW 6.9 mph - N/A   Scattered Clouds
10:54 AM 88.0 °F 97.5 °F 75.0 °F 65% 30.08 in 9.0 mi WSW 4.6 mph - N/A   Partly Cloudy
11:54 AM 88.0 °F 96.5 °F 73.9 °F 63% 30.07 in 8.0 mi WSW 3.5 mph - N/A   Mostly Cloudy
12:54 PM 88.0 °F 96.5 °F 73.9 °F 63% 30.06 in 7.0 mi Calm Calm - N/A   Scattered Clouds
1:54 PM 91.9 °F 101.3 °F 73.9 °F 55% 30.03 in 8.0 mi SW 4.6 mph - N/A   Scattered Clouds
2:54 PM 93.0 °F 101.9 °F 73.0 °F 52% 30.02 in 8.0 mi WSW 3.5 mph - N/A   Scattered Clouds
3:54 PM 95.0 °F 104.5 °F 73.0 °F 49% 30.00 in 8.0 mi North 3.5 mph - N/A   Partly Cloudy
4:54 PM 93.9 °F 100.8 °F 71.1 °F 47% 29.99 in 9.0 mi Calm Calm - N/A   Partly Cloudy
5:54 PM 93.9 °F 102.1 °F 72.0 °F 49% 29.99 in 9.0 mi ENE 3.5 mph - N/A   Clear
6:54 PM 91.9 °F 98.4 °F 71.1 °F 50% 29.98 in 9.0 mi Calm Calm - N/A   Clear
7:54 PM 86.0 °F 96.9 °F 77.0 °F 74% 29.98 in 8.0 mi Calm Calm - N/A   Clear
8:54 PM 82.0 °F 89.4 °F 75.9 °F 82% 29.99 in 8.0 mi Calm Calm - N/A   Clear
9:54 PM 82.0 °F 89.4 °F 75.9 °F 82% 30.01 in 7.0 mi Calm Calm - N/A   Clear
10:54 PM 81.0 °F 87.3 °F 75.9 °F 85% 30.02 in 7.0 mi SSE 3.5 mph - N/A   Clear
11:54 PM 81.0 °F 87.3 °F 75.9 °F 85% 30.02 in 7.0 mi Calm Calm - N/A   Clear